Regional Weather Roundup
Issued by NWS

Home | Current Version | Previous Version | Text Only | Print | Product List | Glossary Off
Versions: 1 2 3 4 5 6 7 8 9 10 11 12 13 14 15 16 17 18 19 20 21 22 23 24 25 26 27 28 29 30 31 32 33 34 35 36 37 38 39 40 41 42 43 44 45 46 47 48 49 50

000
ASUS43 KFSD 291102
RWRSD

WEATHER ROUNDUP FOR SOUTH DAKOTA
NATIONAL WEATHER SERVICE SIOUX FALLS SD
600 AM CDT FRI JUL 29 2016

NOTE: "FAIR" INDICATES FEW OR NO CLOUDS BELOW 12,000 FEET WITH NO
SIGNIFICANT WEATHER AND/OR OBSTRUCTIONS TO VISIBILITY.


SDZ001>005-009-010-012>017-291200-
NORTHWEST AND NORTH CENTRAL SOUTH DAKOTA

CITY           SKY/WX    TMP DP  RH WIND       PRES   REMARKS
BUFFALO          N/A     60  59  96 SE6       30.06F
FAITH            N/A     56  55  97 N3        30.11S
MOBRIDGE       CLOUDY    67  59  75 CALM      30.06F
$$

SDZ012>016-024>037-041>051-057-063-072>074-291200-
SOUTHWEST AND SOUTH CENTRAL SOUTH DAKOTA

CITY           SKY/WX    TMP DP  RH WIND       PRES   REMARKS
RAPID CTY ARPT FOG       55  55 100 CALM      30.13F VSB 1/4
PIERRE         PTCLDY    61  60  97 SW5       30.07S
CUSTER         PTCLDY    50  47  89 W3        30.23R
ELLSWORTH AFB  FOG       57  57 100 SW3       30.13  VSB 1
PHILIP         FOG       58  58 100 CALM      30.10F VSB 1/4
PINE RIDGE     CLOUDY    54  54 100 CALM      30.13F
WINNER         CLOUDY    64  62  93 CALM      30.10S FOG
$$

SDZ004>011-016>023-039-040-291200-
NORTHEAST SOUTH DAKOTA

CITY           SKY/WX    TMP DP  RH WIND       PRES   REMARKS
ABERDEEN       CLOUDY    63  60  90 CALM      30.09S
WATERTOWN      CLEAR     60  57  89 N3        30.09R
BROOKINGS      CLEAR     52  51  97 N5        30.08S
SISSETON         N/A     57  56  96 CALM      30.07S
$$

SDZ017-020-022-023-036>040-048>070-291200-
SOUTHEAST SOUTH DAKOTA

CITY           SKY/WX    TMP DP  RH WIND       PRES   REMARKS
SIOUX FALLS    CLOUDY    56  53  90 CALM      30.07R
HURON          CLEAR     56  54  93 CALM      30.08S
CHAMBERLAIN    CLOUDY    65  65 100 CALM      30.09S
MITCHELL       PTCLDY    58  56  93 W3        30.08F
YANKTON        PTCLDY    59  54  82 NW6       30.06R
$$

ABBREVIATIONS USED IN REMARKS
   TC - TEMPERATURE IN CELSIUS
  WCI - WIND CHILL INDEX
   HX - HEAT INDEX
  VSB - VISIBILITY





USA.gov is the U.S. government's official web portal to all federal, state and local government web resources and services.